This is the latest recevied weather packets stored in our database for station/object SV9TNF-1. If no packets are shown the sender has not sent any weather packets the latest 10 day(s).
| Time | Temp. | Humidity | Pressure | Rain* | Wind** | Luminosity | Snow |
|---|---|---|---|---|---|---|---|
| 1778050223 | 23.33° C | 38% | 1004.7 hPa | 0 mm | 2.68 m/s, 127° | - | - |
| 1778049923 | 23.33° C | 36% | 1005.1 hPa | 0 mm | 1.79 m/s, 125° | - | - |
| 1778049623 | 23.33° C | 31% | 1005.1 hPa | 0 mm | 1.79 m/s, 141° | - | - |
| 1778049323 | 23.33° C | 30% | 1005.1 hPa | 0 mm | 1.79 m/s, 139° | - | - |
| 1778049023 | 22.78° C | 34% | 1005.1 hPa | 0 mm | 1.79 m/s, 131° | - | - |
| 1778048723 | 22.78° C | 42% | 1005.1 hPa | 0 mm | 0 m/s | - | - |
| 1778048422 | 22.22° C | 41% | 1005.1 hPa | 0 mm | 0.45 m/s, 130° | - | - |
| 1778048122 | 22.22° C | 30% | 1005.1 hPa | 0 mm | 0 m/s | - | - |
| 1778047822 | 22.22° C | 33% | 1004.7 hPa | 0 mm | 4.92 m/s, 97° | - | - |
| 1778047522 | 22.22° C | 35% | 1004.7 hPa | 0 mm | 1.79 m/s, 122° | - | - |
| 1778047222 | 21.67° C | 32% | 1004.7 hPa | 0 mm | 3.58 m/s, 349° | - | - |
| 1778046922 | 21.67° C | 34% | 1004.7 hPa | 0 mm | 2.24 m/s, 90° | - | - |
| 1778046622 | 21.67° C | 33% | 1004.7 hPa | 0 mm | 2.68 m/s, 88° | - | - |
| 1778046322 | 21.67° C | 31% | 1004.7 hPa | 0 mm | 4.02 m/s, 322° | - | - |
| 1778046022 | 21.67° C | 33% | 1004.7 hPa | 0 mm | 2.24 m/s, 172° | - | - |
| 1778045421 | 21.11° C | 33% | 1004.7 hPa | 0 mm | 3.58 m/s, 336° | - | - |
| 1778045121 | 20.56° C | 32% | 1004.7 hPa | 0 mm | 4.02 m/s, 353° | - | - |
| 1778044822 | 20.56° C | 32% | 1004.1 hPa | 0 mm | 4.92 m/s, 329° | - | - |
| 1778044521 | 20.56° C | 33% | 1004.1 hPa | 0 mm | 4.92 m/s, 343° | - | - |
| 1778044221 | 20° C | 33% | 1004.1 hPa | 0 mm | 6.26 m/s, 355° | - | - |
| 1778043921 | 20° C | 33% | 1004.1 hPa | 0 mm | 6.26 m/s, 358° | - | - |
| 1778043621 | 19.44° C | 36% | 1004.1 hPa | 0 mm | 6.26 m/s, 11° | - | - |
| 1778043321 | 19.44° C | 35% | 1004.1 hPa | 0 mm | 5.81 m/s, 344° | - | - |
| 1778043020 | 19.44° C | 34% | 1004.1 hPa | 0 mm | 4.92 m/s, 325° | - | - |
| 1778042720 | 19.44° C | 31% | 1004.1 hPa | 0 mm | 4.92 m/s, 321° | - | - |
* Rain latest hour (hover to see other rain measurements)
** Current wind speed in m/s (hover to see current wind gust speed)